星链-3143 (STARLINK-3143 )

导读 | 豆包AI

STARLINK-3143是美国SpaceX公司星链星座中的一颗低轨通信卫星,于北京时间2021年12月2日发射入轨。作为星链互联网星座的组成部分,它旨在为全球尤其是偏远地区提供高速宽带服务。星链通过大规模低轨卫星组网,能大幅降低信号延迟,弥补地面网络覆盖不足,该卫星的成功发射进一步推动了星链星座的部署进程,拓展全球卫星互联网的覆盖范围。

基本信息
目录编号:
49738
目录名称:
STARLINK-3143
国际标识:
2021-115Q
轨道中心:
EARTH
卫星名称:
星链-3143
卫星全名:
星链-3143 (STARLINK-3143 )
卫星状态:
在轨 (已飞行1563 天)
发射日期:
2021-12-02 UTC
国别 :
美国 (US)
星等 :
--
轨道信息
数据来源 国际轨道数据 AOE轨道数据
星历时间 2026-03-13T20:57:46+0800
1天前
查看轨道信息
2026-03-12T08:00:00+0800
2天前
查看轨道信息
半长轴 6917.872km 6917.892km
偏心率 0.0001609 0.0001751
轨道倾角 53.218° 53.215°
近地点辐角 72.775° 62.187°
升交点赤经 132.041° 138.956°
平近点角 287.342° 207.754°
近地点 538.621km 538.543km
远地点 540.849km 540.967km
周期 95.437分钟 95.438分钟
每日圈数 15.088429 15.088364
详细信息
固有亮度:
5
最大亮度:
2.5
卫星平台:
Starlink v1.5
覆盖范围:
全球
运营商:
太空探索技术公司
运营商所在国:
美国
制造商(研发单位):
太空探索技术公司
制造商所在国:
美国
使用方式:
暂无
卫星简介
星链(Starlink)计划是由太空探索技术公司(SpaceX)提出的一个巨型低轨卫星互联网星座项目,计划在2019年至2024年间在太空搭建由约1.2万颗卫星组成的“星链”网络,其中1584颗将部署在地球上空550千米处的近地轨道,并从2020年开始工作。该卫星仍在工作。
2D轨道图
3D轨道图
轨道高度分析图
轨道倾角分析图
轨道综合分析图
查看轨道综合分析图